Regional Weather Roundup
Issued by NWS Cleveland, OH

Home | Current Version | Previous Version | Text Only | Print | Product List | Glossary On
Versions: 1 2 3 4 5 6 7 8 9 10 11 12 13 14 15 16 17 18 19 20 21 22 23 24 25 26 27 28 29 30 31 32 33 34 35 36 37 38 39 40 41 42 43 44 45 46 47 48 49 50
000
ASUS41 KCLE 272012
RWRCLE
OHIO REGIONAL WEATHER ROUNDUP
NATIONAL WEATHER SERVICE WILMINGTON, OH
400 PM EDT MON JUN 27 2016

NOTE: "FAIR" INDICATES FEW OR NO CLOUDS BELOW 12,000 FEET WITH NO
SIGNIFICANT WEATHER AND/OR OBSTRUCTIONS TO VISIBILITY.

OHZ001>008-015>018-024>027-034-035-043-044-272100-
   NORTHWEST OHIO

CITY           SKY/WX    TMP DP  RH WIND       PRES   REMARKS
DEFIANCE       FAIR      90  58  33 W10G17    29.97F
FINDLAY        FAIR      90  57  32 W15G22    29.96F
TOLEDO EXPRESS FAIR      91  55  29 W18G28    29.94F
TOLEDO EXEC    FAIR      92  56  29 W22G29    29.95F HX  90
LIMA           FAIR      87  64  46 W9        30.00F
$$

OHZ009>014-019>023-028>033-038-089-272100-
   NORTHEAST OHIO

CITY           SKY/WX    TMP DP  RH WIND       PRES   REMARKS
CLE-HOPKINS    FAIR      91  49  23 W15G21    29.97F
CLE-LAKEFRONT  FAIR      88  61  40 W9        29.94F
CUY CO. ARPT   MOSUNNY   90  54  29 W16       29.97F
LORAIN-ELYRIA  FAIR      88  54  31 W13G20    29.96F
ASHTABULA      FAIR      87  52  29 W12G20    29.96F
AKRON-CANTON   FAIR      88  59  37 NW15G22   29.98F
WOOSTER        FAIR      87  57  35 NW12      29.99F
MANSFIELD      FAIR      86  58  38 W9G17     30.01F
YOUNGSTOWN     PTSUNNY   87  60  40 SW8       29.97F
$$

OHZ042-051>053-060>062-070>072-077>081-272100-
  SOUTHWEST OHIO

CITY           SKY/WX    TMP DP  RH WIND       PRES   REMARKS
CINC-COVINGTON PTSUNNY   89  61  38 N12       30.03F
CINC-LUNKEN    FAIR      89  64  43 N10       30.01F HX  90
HAMILTON       FAIR      89  59  36 NW12      30.02F
DAYTON         FAIR      89  58  34 NW14      30.03F
WRIGHT-PAT AFB FAIR      89  58  34 W12       30.01F
DAYTON GENERAL FAIR      89  54  30 NW14G21   30.02F
WILMINGTON     FAIR      88  56  33 N15       30.02F
$$

OHZ036-037-039>041-045>050-054>059-063>069-073>076-082>088-272100-
  CENTRAL AND SOUTHEAST OHIO

CITY           SKY/WX    TMP DP  RH WIND       PRES   REMARKS
COLUMBUS       FAIR      88  56  33 NW12G18   29.99F
OSU AIRPORT    FAIR      88  59  37 NW12      30.00F
BOLTON FIELD   SUNNY     88  61  40 NW5       30.01F
RICKENBACK AFB FAIR      88  59  37 NW9       29.98F
NEWARK         FAIR      88  59  37 NW9       29.99F
MARION         FAIR      87  57  35 W10       30.00F
LANCASTER      FAIR      87  64  46 NW10      29.99F
ZANESVILLE     FAIR      89  63  41 N9        29.99F HX  90
NEW PHILLY     FAIR      92  54  27 W9        29.97F HX  90
$$




USA.gov is the U.S. government's official web portal to all federal, state and local government web resources and services.